STARLINK-6143, 57133

Orbit data source: Space-Track

STARLINK-6143, 57133 is a payload satellite owned by SpaceX/Seattle (US) in LEO that was launched on Fri, 23 Jun 2023 UTC via an FALCON 9 launch vehicle from the Air Force Eastern Test Range (AFETR). Payload-class satellites include a variety of spacecraft equipped with specific instruments for various scientific and technological missions. These include communications satellites like Starlink; space stations such as the ISS; scientific satellites like the Hubble; Earth observation satellites from companies like Planet Labs, Umbra, and HawkEye 360; GPS; miniature CubeSats for education and research; and military/defense satellites.

Loading next visibility...
Identifier
57133, 2023-090AJ
Orbit
LEO
Last TLE update
1 day ago
Origin
Manufacturer
SpaceX/Seattle
Mission
Operational Commercial Communications
Bus & Motor
STARLINK, Unknown motor
Mass
305 kg wet, ~290 kg dry
Launch date (UTC)
2023-06-23 (2 years ago)
Launch vehicle
FALCON 9
Launch site
Air Force Eastern Test Range (AFETR)
Object type
Payload
Rocket body
Debris
Shape & HBR
Box + 1 Pan, 9 m
Radar Cross Section
11.087 m², Large (>1 m²)

Expand to show TLE details & history

TLE from 1 day ago
0 STARLINK-6143
1 57133U 23090AJ  25187.41409934  .00000158  00000-0  26773-4 0  9993
2 57133  43.0026 160.1219 0000940 285.4154  74.6584 15.02534784113321
Epoch: 2025-07-06T09:56Z
TLE epoch observation values (Epoch: 2025-07-06T09:56:18.182Z)
Latitude
-0.00007°
Longitude
86.40793°
Altitude
558.689 km
Speed
7.584 km/s
True Right ascension
10h 40m 29s
True Declination
0° 00' 00"
Sunlit
Object was in daylight at epoch
Visualization orbit readout
Latitude
-37.76881°
Longitude
24.97301°
Altitude
569.575 km
Speed
7.577 km/s
Apparent Right ascension
08h 44m 49s
Apparent Declination
-44° 11' 29"
Sunlit
Object is in daylight
Visualization observer readout
Local Sidereal Time
23:13:17
Azimuth
111.192° ESE
Elevation
-62.352°
Doppler factor
1
Orbital elements
Apogee altitude
561.659 km
Perigee altitude
560.355 km
Semi-major axis
6,939.144 km
Eccentricity
0.00009
Inclination
43.0026°
RAAN
160.1219°
Arg. of periapsis
285.4154°
True anomaly
Unknown
Mean anomaly
74.6584°
Eccentric anomaly
Unknown
Mean motion
3.75478 °/min
Orbital period
95.88 mins
BSTAR
0.000026773
Loading maneuver chart data...
Loading SW <> Apogee altitude chart data...
Loading historical data...
Loading historical data...
Loading historical data...
Loading historical data...
Loading historical data...
Loading historical data...
Loading historical data...

STARLINK-6143 Visibility forecast

Observer location: undefined°, undefined°

Span
Click to sort rows by Start time (UTC) header in descending order
Start Az.
Max El. time (UTC)
Max El. Az.
Max El.
End time (UTC)
End Az.
5 mins2025-07-08 00:25:03.509Z188.865° SSW2025-07-08 00:27:03.509Z154.501° SSE21.391°2025-07-08 00:30:03.509Z98.899° ESE
6 mins2025-07-08 02:05:03.509Z248.057° W2025-07-08 02:08:03.509Z92.039° ESE44.458°2025-07-08 02:11:03.509Z72.569° E
6 mins2025-07-08 03:46:03.509Z286.234° WNW2025-07-08 03:49:03.509Z21.464° NNE38.611°2025-07-08 03:52:03.509Z74.62° E
6 mins2025-07-08 05:27:03.509Z290.369° WNW2025-07-08 05:30:03.509Z84.329° E43.003°2025-07-08 05:33:03.509Z104.085° ESE
5 mins2025-07-08 07:08:03.509Z257.563° W2025-07-08 07:10:03.509Z212.349° SW26.638°2025-07-08 07:13:03.509Z156.418° SSE
|